Location: Unspecified
(0.0000°N, 0.0000°E)
Time: 00:24:32
(UTC+00:00)

N. Korean satellite - Pass Details

Date: 17 January 2021
Orbit: 453 x 502 km, 97.2° (Epoch: 16 January)

Event Time Altitude Azimuth Distance (km) Brightness Sun altitude
Rises 05:21:45 0° 359° (N) 2,464 9.9 -11.3°
Reaches altitude 10° 05:23:52 10° 351° (N) 1,588 8.9 -10.8°
Maximum altitude 05:27:03 38° 281° (W) 705 6.9 -10.1°
Drops below altitude 10° 05:30:14 10° 211° (SSW) 1,587 9.1 -9.3°
Sets 05:32:21 0° 203° (SSW) 2,461 10.1 -8.8°
